Regional Weather Roundup
Issued by NWS

Home | Current Version | Previous Version | Text Only | Print | Product List | Glossary Off
Versions: 1 2 3 4 5 6 7 8 9 10 11 12 13 14 15 16 17 18 19 20 21 22 23 24 25 26 27 28 29 30 31 32 33 34 35 36 37 38 39 40 41 42 43 44 45 46 47 48 49 50

000
ASUS43 KDMX 251106
RWRIA

WEATHER ROUNDUP FOR IOWA
NATIONAL WEATHER SERVICE DES MOINES IA
500 AM CST SAT FEB 25 2017

NOTE: "FAIR" INDICATES FEW OR NO CLOUDS BELOW 12,000 FEET WITH NO
SIGNIFICANT WEATHER AND/OR OBSTRUCTIONS TO VISIBILITY.

* - THESE STATIONS ARE NOT NWS STATIONS...THUS NOT UNDER NWS
QUALITY CONTROL.  THEY ALSO DO NOT REPORT WEATHER SUCH
AS PRECIPITATION OR FOG.

IAZ001>003-012>014-020>022-031>034-043>046-251200-
   NORTHWEST IOWA

CITY           SKY/WX    TMP DP  RH WIND       PRES   REMARKS
CARROLL *      PTCLDY    18  14  86 NW16G23   30.02R WCI   3
CHEROKEE *     CLEAR     16  13  85 NW8G17    30.04R WCI   6
DENISON *      CLEAR     16  12  86 NW15      30.03R WCI   1
LE MARS *      CLEAR     14  12  92 NW8       30.08R WCI   3
SHELDON *      CLEAR     14  14 100 NW9       30.01S WCI   2
SIOUX CITY     CLOUDY    19  13  77 NW12      30.09R WCI   7
SPENCER        CLEAR     13   7  77 NW9       30.00S WCI   1
STORM LAKE *   FOG       14  10  85 NW16      30.01R VSB 1   WCI  -2
$$

IAZ055>058-069>071-079>083-090>094-251200-
   SOUTHWEST IOWA

CITY           SKY/WX    TMP DP  RH WIND       PRES   REMARKS
ATLANTIC *     CLEAR     18  14  86 NW14      30.05S WCI   4
AUDUBON *      CLEAR     16  12  86 NW7       30.03R WCI   6
CLARINDA *     PTCLDY    19  14  79 NW8G16    30.10S WCI   9
COUNCIL BLFS * CLEAR     18  16  93 NW10      30.08R WCI   6
CRESTON *      CLEAR     16  10  79 NW13      30.03S WCI   2
HARLAN  *      CLEAR     18  14  86 NW12      30.08S WCI   5
LAMONI         CLEAR     17  11  77 NW13      30.02R WCI   4
RED OAK *      PTCLDY    19  14  79 NW10      30.07S WCI   8
SHENANDOAH *   PTCLDY    19  14  79 NW7       30.10S WCI  10
$$

IAZ047>049-059>061-072>074-084-251200-
   CENTRAL IOWA

CITY           SKY/WX    TMP DP  RH WIND       PRES   REMARKS
AMES           CLEAR     17  13  84 NW15G26   29.98R WCI   2
ANKENY *       CLEAR     18  12  79 NW14      30.00R WCI   4
BOONE *        CLEAR     16   9  73 NW16G23   29.96S WCI   0
CHARITON *     MOCLDY    18  12  79 NW15G23   29.99R WCI   3
DES MOINES     MOCLDY    19  11  70 NW15      30.00R WCI   5
GRINNELL*      CLEAR     17  13  85 NW20      29.94R WCI   0
KNOXVILLE *    CLOUDY    18  10  73 NW22      29.97R WCI   0
MARSHALLTOWN   CLEAR     16  11  80 NW23      29.92S WCI  -2
NEWTON *       PTCLDY    18  12  79 NW20      29.95R WCI   1
PELLA *        CLEAR     18  13  82 NW10G17   29.99R WCI   6
PERRY *          N/A     17  12  80 NW14      30.01R WCI   3
$$

IAZ004>006-015-016-023>025-035-036-251200-
   NORTH CENTRAL IOWA

CITY           SKY/WX    TMP DP  RH WIND       PRES   REMARKS
ALGONA *       FLURRIES  12   9  85 NW16G22   29.95S WCI  -4
CLARION *      CLEAR     12   9  85 NW15      29.96R WCI  -4
ESTHERVILLE    CLEAR     12   6  77 NW20      29.97S WCI  -6
FORT DODGE *   CLEAR     12   5  73 NW7       29.99R WCI   2
MASON CITY     CLEAR     13   9  84 NW22      29.92R WCI  -6
FOREST CITY *    N/A     12   9  85 NW15      29.92S WCI  -4
WEBSTER CITY * CLEAR     14   9  79 NW16      29.95R WCI  -2
IOWA FALLS *     N/A     16  12  82 NW21      29.93S WCI  -1
$$

IAZ007>011-017>019-026>030-037>042-050>054-066-251200-
   NORTHEAST IOWA

CITY           SKY/WX    TMP DP  RH WIND       PRES   REMARKS
CEDAR RAPIDS   CLEAR     17  11  77 NW17G26   29.87R WCI   1
CHARLES CITY * PTCLDY    14   9  79 NW17      29.89R WCI  -3
CLINTON *      CLOUDY    20  16  84 NW16      29.82R WCI   6
DECORAH *      CLOUDY    18  10  73 NW14G25   29.81R WCI   4
DUBUQUE        CLOUDY    19  13  77 NW17      29.79R WCI   4
MONTICELLO *   PTCLDY    19  12  73 NW17G25   29.83R WCI   4
OELWEIN *      CLEAR     16  10  79 NW18      29.86R WCI  -1
WATERLOO       CLEAR     16  10  77 NW16G29   29.89R WCI   1
$$

IAZ064-065-067-068-078-251200-
   EAST CENTRAL IOWA

CITY           SKY/WX    TMP DP  RH WIND       PRES   REMARKS
DAVENPORT      FLURRIES  21  16  81 NW17      29.84R WCI   7
IOWA CITY      CLEAR     20  11  68 NW16G23   29.91R WCI   6
MUSCATINE *    CLOUDY    21  14  73 NW16G24   29.90R WCI   7
QUAD CITIES    FLURRIES  24  17  74 NW18G25   29.85R WCI  10
$$

IAZ062-063-075>077-085>089-095>099-251200-
   SOUTHEAST IOWA

CITY           SKY/WX    TMP DP  RH WIND       PRES   REMARKS
BURLINGTON     MOCLDY    22  15  75 NW16G23   29.90R WCI   8
FAIRFIELD *    CLEAR     19  12  73 W17       29.93R WCI   4
KEOKUK *       PTCLDY    23  14  68 NW14G21   29.94R WCI  11
CENTERVILLE *    N/A     18  14  86 W14       29.99R WCI   4
OTTUMWA        CLEAR     19  13  77 NW17      29.95R WCI   4
WASHINGTON *   PTCLDY    19  14  79 W15G21    29.93R WCI   5
$$

ABBREVIATIONS USED IN REMARKS
   TC - TEMPERATURES IN CELSIUS
  WCI - WIND CHILL INDEX
   HX - HEAT INDEX
  VSB - VISIBILITY
$$





USA.gov is the U.S. government's official web portal to all federal, state and local government web resources and services.